Location: Cañada de la Miga
(34.7595°N, 106.2317°W)
Time: 15:31:33
(UTC+00:00)

A-11 Canister half - Pass Details

Date: 09 December 2021
Orbit: 1516 x 1684 km, 47.2° (Epoch: 17 January)

Event Time Altitude Azimuth Distance (km) Brightness Sun altitude
Exits shadow 13:10:56 - 252° (WSW) 4,688 11.1 -10.2°
Reaches altitude 10° 13:13:57 10° 256° (WSW) 3,751 10.6 -9.6°
Maximum altitude 13:23:20 59° 335° (NNW) 1,818 9.2 -7.8°
Drops below altitude 10° 13:33:07 10° 53° (NE) 3,890 11.6 -6.0°
Sets 13:36:24 0° 58° (ENE) 4,897 12.2 -5.4°
